TimeAKST,TemperatureF,Dew PointF,Humidity,Sea Level PressureIn,VisibilityMPH,Wind Direction,Wind SpeedMPH,Gust SpeedMPH,PrecipitationIn,Events,Conditions,WindDirDegrees,DateUTC
12:01 AM,1.9,-0.9,88,30.07,6.0,East,21.9,-,N/A,,Clear,90,2013-01-05 09:01:00
1:01 AM,1.0,-2.9,83,30.07,8.0,East,20.7,-,N/A,,Clear,90,2013-01-05 10:01:00
2:01 AM,-0.0,-2.9,88,30.06,5.0,East,20.7,-,N/A,,Clear,90,2013-01-05 11:01:00
3:01 AM,-0.0,-2.9,88,30.06,5.0,East,19.6,-,N/A,,Clear,90,2013-01-05 12:01:00
4:01 AM,-0.0,-2.9,88,30.06,4.0,East,20.7,-,N/A,,Clear,90,2013-01-05 13:01:00
5:01 AM,-0.0,-2.9,88,30.05,4.0,East,24.2,-,N/A,,Clear,90,2013-01-05 14:01:00
6:01 AM,1.0,-2.0,87,30.03,6.0,East,21.9,-,N/A,,Clear,90,2013-01-05 15:01:00
7:01 AM,1.0,-2.0,87,30.02,8.0,East,20.7,-,N/A,,Clear,80,2013-01-05 16:01:00
8:01 AM,1.9,-0.9,88,30.02,5.0,East,23.0,-,N/A,,Clear,90,2013-01-05 17:01:00
9:01 AM,1.9,-0.9,88,30.01,5.0,East,23.0,-,N/A,,Clear,90,2013-01-05 18:01:00
9:31 AM,1.4,-2.2,85,30.01,2.5,East,25.3,31.1,N/A,,Partly Cloudy,90,2013-01-05 18:31:00
9:45 AM,1.4,-2.2,85,30.00,3.0,East,21.9,-,N/A,,Partly Cloudy,80,2013-01-05 18:45:00
10:01 AM,-0.0,-2.9,88,30.01,3.0,East,23.0,-,N/A,,Partly Cloudy,80,2013-01-05 19:01:00
11:01 AM,-0.0,-2.0,91,30.00,3.0,East,21.9,-,N/A,,Clear,80,2013-01-05 20:01:00
11:29 AM,1.4,-2.2,85,30.00,2.0,East,23.0,-,N/A,,Clear,80,2013-01-05 20:29:00
11:52 AM,-0.4,-2.2,92,30.00,3.0,East,24.2,-,N/A,,Clear,80,2013-01-05 20:52:00
12:01 PM,-0.9,-4.0,87,30.00,4.0,East,23.0,-,N/A,,Clear,80,2013-01-05 21:01:00
12:16 PM,-0.4,-4.0,85,30.00,2.5,East,21.9,28.8,N/A,,Clear,80,2013-01-05 21:16:00
12:26 PM,-0.4,-4.0,85,30.00,1.8,East,23.0,-,N/A,,Partly Cloudy,80,2013-01-05 21:26:00
12:34 PM,-0.4,-4.0,85,29.99,2.0,ENE,23.0,-,N/A,,Partly Cloudy,70,2013-01-05 21:34:00
1:01 PM,-2.0,-5.1,87,29.99,2.0,East,23.0,-,N/A,,Partly Cloudy,80,2013-01-05 22:01:00
1:17 PM,-2.2,-5.8,85,29.99,1.5,East,24.2,-,N/A,,Scattered Clouds,80,2013-01-05 22:17:00
1:49 PM,-2.2,-5.8,85,29.99,1.5,East,25.3,-,N/A,,Mostly Cloudy,80,2013-01-05 22:49:00
2:01 PM,-2.2,-5.8,85,29.99,2.0,East,19.6,-,N/A,,Mostly Cloudy,80,2013-01-05 23:01:00
2:08 PM,-4.0,-7.6,85,29.99,2.5,East,20.7,-,N/A,,Scattered Clouds,80,2013-01-05 23:08:00
2:22 PM,-4.0,-7.1,87,29.99,2.0,East,21.9,-,N/A,,Scattered Clouds,80,2013-01-05 23:22:00
2:40 PM,-4.0,-7.6,85,29.99,2.5,East,23.0,-,N/A,,Mostly Cloudy,80,2013-01-05 23:40:00
2:43 PM,-4.0,-7.6,85,29.98,3.0,ENE,23.0,-,N/A,,Scattered Clouds,70,2013-01-05 23:43:00
3:01 PM,-2.9,-6.0,87,29.99,3.0,East,24.2,-,N/A,,Partly Cloudy,80,2013-01-06 00:01:00
4:01 PM,-5.1,-8.0,87,29.99,5.0,East,23.0,-,N/A,,Clear,80,2013-01-06 01:01:00
4:56 PM,-5.8,-9.4,84,29.99,3.0,East,21.9,-,N/A,,Scattered Clouds,80,2013-01-06 01:56:00
5:01 PM,-5.1,-9.0,83,29.99,3.0,East,20.7,-,N/A,,Scattered Clouds,80,2013-01-06 02:01:00
6:01 PM,-7.1,-11.0,83,29.99,8.0,East,18.4,-,N/A,,Clear,80,2013-01-06 03:01:00
7:01 PM,-7.1,-11.0,83,29.99,5.0,East,19.6,-,N/A,,Clear,80,2013-01-06 04:01:00
8:01 PM,-8.0,-11.9,83,29.99,5.0,East,13.8,-,N/A,,Clear,80,2013-01-06 05:01:00
9:01 PM,-9.0,-13.0,83,29.99,4.0,East,13.8,-,N/A,,Clear,80,2013-01-06 06:01:00
10:01 PM,-9.0,-13.0,83,29.99,5.0,East,17.3,-,N/A,,Clear,80,2013-01-06 07:01:00
11:01 PM,-9.9,-13.0,86,29.99,3.0,East,18.4,-,N/A,,Clear,90,2013-01-06 08:01:00